RH
14 22 22 14 12 11 11 9 9 9 9 9 9 9 9 8 8 8 8 8 8 7 7 7 7 7 8 8 8 8 8 10 15 21 27 29 30 30 27 22 21 24 25
11 12 11 14 9 8 8 9 10 10 10 10 10 9 9 8 8 7 7 7 7 7 7 7 7 7 7 8 8 9 10 11 11 10 10 12 22 27 28 31 36 29 22
11 11 10 9 9 10 10 10 10 10 10 9 9 8 7 7 7 7 9 12 11 9 9 9 8 8 8 10 12 14 15 15 14 14 15 15 15 12 12 17 25 28 36
12 12 11 10 10 10 10 10 10 10 9 8 7 7 10 16 18 17 15 13 14 18 13 10 11 12 12 13 14 14 14 14 14 14 14 14 15 16 17 18 17 15 19
12 12 11 10 10 10 10 10 9 8 7 7 7 7 11 14 16 16 18 19 19 19 16 13 13 14 14 14 14 14 13 12 12 10 10 10 10 10 11 13 15 18 20
12 11 10 11 10 10 10 9 8 8 7 8 9 13 15 15 14 17 20 21 20 17 15 15 15 16 16 16 15 14 12 9 6 5 5 5 5 5 5 5 6 7 10
11 11 11 11 11 10 9 8 8 7 8 10 13 13 12 14 18 21 18 17 16 16 16 16 17 15 13 11 10 10 10 9 7 6 5 5 5 5 5 5 5 7 7
11 11 11 11 10 9 8 8 7 7 8 9 14 15 16 18 19 16 16 16 16 16 15 11 8 6 6 5 5 5 5 6 6 7 8 8 8 9 9 9 9 9 11
11 11 11 10 10 9 8 8 7 7 10 19 20 17 14 13 14 15 15 14 12 10 8 7 7 7 6 6 7 8 9 11 12 12 12 12 12 12 13 13 13 13 14
11 11 10 10 10 9 8 8 7 8 14 21 16 15 12 13 13 12 11 9 9 9 8 8 8 8 8 10 11 13 14 14 14 13 12 11 11 10 11 12 12 13 14
10 10 10 10 10 9 8 7 7 10 18 20 16 12 11 9 10 10 10 10 10 9 10 10 9 10 11 12 14 14 13 14 15 12 8 7 6 6 7 7 8 8 8
10 11 11 10 9 8 7 7 7 12 15 20 14 12 10 9 10 11 11 10 10 11 11 10 9 9 10 11 18 19 19 13 6 6 5 6 6 7 8 8 8 8 8
11 11 11 10 9 8 6 7 7 7 14 21 15 12 10 10 12 12 11 11 12 11 9 9 7 10 19 21 19 13 9 8 6 6 7 8 9 9 8 7 7 7 7
12 12 12 10 9 7 6 6 6 9 13 18 16 13 10 12 13 13 12 11 9 7 5 3 6 11 15 10 8 9 8 7 6 7 10 10 10 10 8 6 7 7 7
12 13 11 10 9 7 6 6 9 16 21 21 16 13 11 12 13 12 11 8 4 2 2 3 4 7 9 8 8 8 6 6 7 8 9 10 12 10 7 6 6 7 7
14 13 12 10 10 8 7 7 15 24 22 17 13 13 12 12 12 11 9 4 2 3 4 4 8 10 9 8 7 6 4 7 8 7 8 11 12 8 8 9 11 10 11
15 14 12 12 10 8 7 7 16 28 23 16 13 13 12 12 12 10 5 2 3 3 4 6 9 10 9 7 5 4 5 7 4 5 6 8 8 6 6 6 8 11 11
16 14 14 12 8 7 7 8 22 26 22 17 14 14 12 11 11 8 3 3 4 4 5 7 8 7 7 5 4 4 5 6 5 4 5 6 7 6 6 7 9 10 10
17 15 14 13 7 7 7 10 24 18 19 16 13 13 12 12 11 8 3 4 6 5 4 4 6 6 6 4 4 4 5 6 5 5 5 5 6 6 6 6 7 8 8
17 15 12 10 7 7 8 13 16 17 18 16 13 12 12 12 11 6 3 6 6 5 5 6 5 5 5 5 5 6 6 6 5 5 6 6 7 7 7 7 7 8 8
18 15 12 11 7 7 8 13 14 18 18 16 13 12 13 12 11 5 3 6 7 5 5 6 8 9 9 9 9 9 9 9 9 9 9 9 9 10 10 10 10 10 10
16 14 12 10 6 8 9 10 14 20 17 15 13 13 13 12 9 5 4 5 7 6 6 5 5 7 8 8 7 7 8 8 8 8 9 9 10 10 11 13 15 16 17
11 11 9 8 6 8 8 11 19 20 16 14 13 13 12 12 7 5 4 4 7 6 7 6 5 4 6 8 7 7 8 10 12 17 20 21 22 22 20 17 16 16 17
8 8 8 6 8 8 13 19 21 18 13 13 13 13 13 8 5 5 6 5 6 6 6 6 4 4 6 9 9 9 10 13 14 19 21 22 22 22 21 22 23 23 22
6 8 7 8 8 14 15 20 21 14 12 12 13 14 11 5 6 6 5 6 7 6 6 5 5 6 8 9 10 11 12 14 16 19 24 26 29 31 34 36 40 41 42
7 10 24 8 15 16 22 21 14 12 12 13 15 14 5 5 6 6 6 7 6 6 6 6 6 7 8 9 10 11 14 18 24 29 34 38 40 40 40 40 36 36 36
Wind_Speed
5 8 7 9 7 7 7 6 6 6 6 7 7 7 8 8 9 10 11 11 12 13 13 14 14 14 14 15 15 16 16 17 17 17 17 17 17 18 18 19 21 22 21
5 5 4 4 4 4 6 6 7 7 7 8 9 10 10 11 12 12 13 15 16 16 17 17 18 18 17 17 17 17 18 19 20 21 22 22 23 23 23 22 21 22 22
6 4 3 4 5 5 5 5 6 7 8 8 10 12 13 13 14 14 15 16 17 17 17 17 17 18 18 19 20 21 21 22 23 24 25 25 26 27 27 28 27 26 25
8 5 4 2 2 2 2 4 6 7 9 11 12 13 13 15 16 19 20 22 22 23 20 18 18 18 18 19 20 21 22 24 24 25 25 26 28 28 28 29 29 30 30
10 8 6 3 2 2 4 6 8 9 11 12 13 14 14 17 20 23 25 25 24 23 20 19 19 19 19 20 21 22 23 24 25 25 25 25 25 25 26 27 28 28 29
12 10 8 6 5 6 7 7 8 9 11 12 14 14 18 22 25 27 27 24 19 18 17 18 19 20 22 24 25 25 25 26 25 25 25 26 26 26 26 25 25 26 27
14 12 9 8 8 7 7 7 8 11 13 15 17 20 24 28 28 26 20 18 16 17 17 19 21 23 23 24 26 26 27 28 28 29 29 29 29 30 29 29 28 28 29
16 13 11 10 9 8 8 8 10 12 16 19 22 24 28 27 23 19 17 16 17 18 20 21 22 24 26 27 28 30 31 32 33 33 34 34 34 34 34 33 32 32 32
17 15 13 12 10 9 9 10 12 14 17 21 26 26 24 20 17 16 17 17 17 19 21 24 25 28 29 30 31 33 34 35 36 37 38 38 38 38 37 37 36 36 36
19 16 15 13 12 11 11 12 14 16 19 24 26 24 20 18 17 16 16 18 20 22 25 27 29 32 33 34 35 36 38 39 41 43 43 43 41 40 39 40 39 38 38
20 18 16 14 13 12 12 14 16 18 20 24 25 22 18 17 16 16 18 21 23 26 30 33 34 35 35 37 38 39 41 43 44 43 40 37 36 35 35 34 33 34 34
21 18 16 14 14 13 14 16 17 20 22 24 23 19 17 17 17 18 21 24 27 31 35 37 39 40 40 40 38 40 41 39 25 22 20 19 18 17 17 17 17 18 17
22 19 16 15 14 14 15 17 19 21 22 24 23 19 17 17 19 22 25 28 32 36 40 43 43 39 36 35 39 37 25 20 23 21 22 20 19 20 21 22 21 20 19
23 19 17 16 15 16 16 19 21 23 24 25 23 20 19 19 22 25 29 33 38 42 42 39 37 35 34 31 23 20 19 21 22 21 18 17 19 23 24 25 24 21 20
23 20 17 16 16 17 17 20 21 22 24 24 23 21 21 23 26 29 34 38 41 38 38 35 30 26 20 21 19 20 21 20 18 16 16 19 22 23 20 19 19 18 17
24 21 18 16 17 19 19 20 21 22 24 23 22 22 23 26 29 32 37 38 37 38 36 26 17 16 18 19 21 24 22 16 15 16 17 19 20 18 14 16 15 15 15
24 22 20 17 20 21 20 21 22 23 24 23 23 23 25 28 30 35 38 35 35 35 29 20 16 17 18 21 21 21 18 13 15 16 19 20 19 19 20 19 19 18 17
25 22 20 20 22 22 22 22 23 26 25 25 24 25 27 30 33 37 33 30 27 27 23 18 16 17 21 22 19 18 16 16 17 19 21 21 20 20 22 23 23 23 23
25 23 21 24 23 23 23 23 25 26 26 26 25 28 30 32 35 38 29 23 20 23 20 17 18 20 22 18 18 19 19 19 20 21 22 22 23 24 24 25 25 26 27
27 26 23 25 25 25 25 25 27 28 28 26 27 28 32 34 37 34 25 20 19 20 20 17 15 17 17 17 19 21 21 22 22 23 23 24 24 24 24 25 27 29 30
28 28 25 27 27 27 26 27 27 29 29 28 29 30 34 37 40 31 26 23 22 21 21 19 17 17 17 18 19 21 21 21 22 24 25 26 27 29 30 31 32 32 34
32 31 27 30 29 28 28 27 29 30 30 30 31 33 37 40 39 32 28 26 25 22 22 20 22 23 22 25 26 27 27 28 29 29 30 31 32 32 32 32 32 33 34
35 29 31 30 30 29 28 28 31 31 31 31 33 36 39 42 37 34 30 28 28 24 23 24 26 26 26 25 25 25 25 27 28 29 30 32 32 33 33 34 34 35 35
33 31 30 30 29 28 28 31 33 32 32 32 35 38 42 41 37 32 29 28 28 26 25 26 29 30 30 28 29 29 29 30 31 30 32 33 33 34 35 37 37 37 38
33 30 29 28 27 27 30 34 33 34 33 34 37 40 42 38 31 27 28 29 28 26 26 28 31 32 32 33 33 33 33 33 34 35 35 36 37 38 40 41 42 43 43
31 27 28 28 26 30 33 34 34 34 34 36 38 42 39 33 27 28 29 29 28 26 28 31 33 34 35 36 37 37 37 37 38 40 41 43 43 44 45 45 46 48 48
Wind_Direction
110 93 100 102 96 89 89 82 74 63 47 32 20 11 359 349 342 335 328 321 316 312 308 305 302 300 300 298 296 294 294 294 292 290 288 287 283 280 278 274 269 266 265
152 124 108 113 99 90 84 68 47 27 9 359 348 341 335 330 325 320 316 313 310 308 306 304 302 300 296 293 292 292 293 293 291 288 285 282 280 279 278 276 274 272 269
183 161 125 123 113 90 57 24 1 345 334 328 324 324 326 327 326 322 320 318 316 310 304 300 297 296 295 295 294 295 294 293 293 291 288 285 282 279 277 276 275 274 273
199 191 189 155 119 71 355 331 323 324 323 324 325 325 329 331 330 327 320 315 312 312 310 306 305 302 299 296 295 294 294 293 292 291 290 288 287 285 283 279 276 274 272
212 214 215 216 216 277 289 302 315 320 324 325 324 321 320 318 319 318 315 307 305 308 310 308 307 307 307 304 300 298 298 297 296 293 290 286 283 283 281 280 279 277 275
210 217 221 221 246 258 280 300 314 321 321 322 318 315 316 316 314 312 311 311 311 309 308 308 308 308 308 306 304 302 300 299 296 294 292 289 285 281 280 280 279 279 279
214 214 220 233 250 265 285 301 315 318 316 315 315 316 315 312 309 308 312 311 312 312 311 310 310 309 306 304 301 299 296 294 292 291 289 287 285 284 282 280 279 278 278
215 217 226 239 254 270 285 298 308 311 313 322 323 320 314 310 312 311 312 311 312 312 313 312 311 309 306 302 299 298 296 294 293 292 291 289 289 287 285 283 280 279 279
218 221 230 242 256 270 282 293 300 308 318 327 326 319 315 313 312 309 310 311 313 312 311 309 306 304 302 300 299 297 295 295 294 293 292 292 290 289 288 288 285 282 281
220 222 233 244 257 268 278 290 302 309 319 326 323 317 310 308 308 309 309 313 314 311 309 307 304 302 301 298 296 296 297 297 295 294 292 291 288 285 284 283 282 281 280
219 225 234 245 257 267 278 290 299 306 317 323 320 311 305 305 305 309 313 313 312 312 310 306 301 299 297 295 295 296 296 295 295 295 291 286 284 284 284 284 284 282 281
222 226 235 246 256 269 282 288 294 301 314 320 316 308 305 305 309 311 310 310 310 309 307 303 301 300 298 298 295 296 297 299 300 304 308 310 308 305 302 300 295 293 290
223 227 235 247 259 271 281 287 294 300 309 316 310 302 299 303 307 308 308 308 309 308 305 304 303 301 300 299 297 297 297 292 302 301 303 301 298 297 298 296 293 291 287
224 229 238 248 261 274 283 289 294 302 307 311 303 297 297 302 305 308 309 311 310 308 309 308 304 301 300 300 300 300 298 296 296 298 300 300 302 302 300 294 287 285 285
227 231 238 250 264 276 284 289 298 307 310 308 299 294 297 300 304 308 311 312 313 315 316 313 308 306 303 303 302 299 299 299 298 300 301 303 309 306 304 305 297 282 283
229 235 240 251 267 276 283 289 298 305 308 304 296 293 296 300 305 312 314 317 320 321 321 316 315 314 313 314 309 307 303 296 300 304 305 307 312 307 300 306 306 296 287
233 237 243 258 268 277 283 287 296 305 306 303 295 294 298 302 310 315 319 322 324 322 317 314 306 302 303 311 309 311 307 300 305 306 307 308 303 294 293 292 289 285 280
237 242 251 260 270 277 283 287 297 302 304 299 295 296 301 306 313 319 321 323 328 325 315 306 311 308 312 313 310 313 305 293 296 301 301 299 296 292 288 285 282 281 280
238 246 254 263 270 277 282 288 297 300 298 295 296 298 304 309 316 322 319 314 324 337 332 306 298 304 308 307 304 309 306 300 296 295 292 290 290 289 287 282 280 279 279
239 248 256 266 272 277 282 287 295 298 294 292 294 300 305 312 317 320 312 300 312 322 330 335 323 312 310 311 306 303 302 301 300 297 293 291 291 291 289 287 285 284 282
241 251 258 268 273 278 281 286 296 296 292 291 296 303 307 312 315 316 305 285 294 305 316 322 315 310 309 308 305 303 300 296 294 294 294 295 294 293 292 291 289 286 283
246 252 261 267 272 278 280 289 294 292 290 291 298 302 307 310 314 311 297 281 282 292 303 309 313 307 307 307 300 296 295 295 294 294 295 295 295 294 291 289 288 286 285
244 254 260 266 271 277 282 290 290 289 288 292 297 303 307 310 312 303 289 286 278 286 297 304 308 308 304 309 310 307 303 300 298 299 300 300 298 296 294 292 291 291 289
246 252 259 266 272 276 285 289 288 286 287 293 298 304 309 311 307 297 293 291 285 284 291 301 305 305 304 306 309 307 305 302 299 298 298 298 296 293 290 289 290 289 288
246 253 261 266 274 277 285 283 284 282 289 294 300 308 308 307 303 298 293 290 285 282 289 295 300 304 305 304 305 305 304 301 299 298 297 295 294 294 293 292 292 291 290
247 253 265 265 269 275 279 280 278 283 290 296 304 306 304 301 296 295 294 292 285 283 289 293 298 301 302 304 305 305 303 303 302 300 299 297 297 295 293 292 293 291 290